sat.trackr.live / text

‹ back to catalog

STARLINK-30364

NORAD 57741 · 2023-131K

PAYLOAD ACTIVE UNKNOWN

§ Identity

Operator
Country
US
Launch date
2023-09-01
Launch site
AFETR
Launch vehicle
Mass (kg)
RCS (m²)

Purposes: comms

External: N2YO · Heavens-Above · Gunter

§ Orbital elements

Epoch: 2026-05-25T03:42:08.737056Z

Period
94.27 min
Inclination
43.0019°
Eccentricity
0.0001260
Mean motion
15.27580743 rev/d
Perigee alt
482.2 km
Apogee alt
483.9 km
Semi-major
6,861.2 km
B*
3.7081e-5
RAAN
100.3731°
Arg perigee
268.7047°
Mean anomaly
91.3660°
Rev number
15,161

§ Raw data

STARLINK-303641 57741U 23131K   26145.15426779  .00000758  00000+0  37081-4 0  99952 57741  43.0019 100.3731 0001260 268.7047  91.3660 15.27580743151612

JSON: /api/v1/satellites/57741 · /tle

For live sub-satellite position, see the globe view (requires WebGL).

§ Visibility from observer

Set your observer location to see the next 7 days of passes ≥ 10°. The values pass through the URL so the page stays shareable.

No JS? Fill the form by hand. The geolocation button needs JavaScript.